This demonstration page uses our WeatherBlox Daily Observations layout. Learn more.

Hourly Observations for November 17, 2015

Temp ( °F °C ) Dew Point ( °F °C ) Humidity (%) Winds ( mph kmh ) Pressure ( in mb ) Visibility ( mi km ) Precip ( " mm )
12:15 am 00:15 Cloudy with Thunderstorms 52 11 50 10 94 94 ESE 14 22 29.44 997 7 11.265408 0.07 1.778
12:35 am 00:35 Cloudy with Rain 52 11 50 10 94 94 ESE 23 37 29.38 995 7 11.265408 0.12 3.048
12:55 am 00:55 Partly Cloudy 52 11 50 10 94 94 ESE 15 24 29.41 996 10 16.09344 0.13 3.302
1:15 am 01:15 Clear 52 11 50 10 94 94 ESE 12 19 29.41 996 10 16.09344 0 0
1:35 am 01:35 Partly Cloudy 52 11 48 9 88 88 ESE 9 15 29.41 996 10 16.09344 0 0
1:55 am 01:55 Partly Cloudy 52 11 48 9 88 88 Calm 29.41 996 10 16.09344 0 0
2:15 am 02:15 Cloudy 52 11 48 9 88 88 E 5 7 29.41 996 10 16.09344 0 0
2:35 am 02:35 Cloudy 50 10 48 9 94 94 N 6 9 29.44 997 10 16.09344 0 0
2:55 am 02:55 Cloudy with Light Rain 50 10 48 9 94 94 NNE 17 28 29.41 996 10 16.09344 0 0
3:15 am 03:15 Mostly Cloudy with Light Rain 50 10 48 9 94 94 NW 10 17 29.44 997 10 16.09344 0 0
3:35 am 03:35 Mostly Cloudy 52 11 48 9 88 88 NNW 9 15 29.44 997 10 16.09344 0 0
3:55 am 03:55 Cloudy 46 8 45 7 93 93 NNW 17 28 29.5 999 10 16.09344 0 0
4:15 am 04:15 Cloudy with Light Rain 45 7 41 5 87 87 N 18 30 29.53 1000 10 16.09344 0 0
4:35 am 04:35 Cloudy with Rain 43 6 41 5 93 93 NNE 20 31 29.5 999 7 11.265408 0 0
4:55 am 04:55 Cloudy with Light Rain 43 6 41 5 93 93 N 23 37 29.53 1000 10 16.09344 0.01 0.254
5:15 am 05:15 Cloudy 41 5 39 4 93 93 N 22 35 29.53 1000 10 16.09344 0 0
5:35 am 05:35 Cloudy 41 5 39 4 93 93 N 16 26 29.56 1001 10 16.09344 0 0
5:55 am 05:55 Cloudy 41 5 39 4 93 93 N 16 26 29.56 1001 10 16.09344 0 0
6:15 am 06:15 Cloudy 39 4 37 3 93 93 N 23 37 29.59 1002 7 11.265408 0 0
6:35 am 06:35 Cloudy with Mist and Fog 39 4 37 3 93 93 N 24 39 29.59 1002 5 8.04672 0 0
6:55 am 06:55 Cloudy 39 4 37 3 93 93 N 22 35 29.59 1002 7 11.265408 0 0
7:15 am 07:15 Cloudy with Mist and Fog 39 4 37 3 93 93 N 20 31 29.56 1001 5 8.04672 0 0
7:35 am 07:35 Cloudy with Mist and Fog 39 4 37 3 93 93 N 24 39 29.56 1001 5 8.04672 0 0
7:55 am 07:55 Cloudy with Mist and Fog 39 4 37 3 93 93 N 20 31 29.59 1002 5 8.04672 0 0
8:15 am 08:15 Cloudy with Mist and Fog 37 3 37 3 100 100 N 24 39 29.56 1001 4 6.437376 0 0
8:35 am 08:35 Cloudy with Mist and Fog 37 3 36 2 93 93 N 29 46 29.56 1001 4 6.437376 0 0
8:55 am 08:55 Cloudy with Mist and Fog 37 3 36 2 93 93 N 24 39 29.56 1001 5 8.04672 0 0
9:15 am 09:15 Cloudy with Mist and Fog 37 3 36 2 93 93 N 23 37 29.56 1001 4 6.437376 0 0
9:35 am 09:35 Cloudy with Mist and Fog 37 3 36 2 93 93 N 24 39 29.56 1001 3 4.828032 0 0
9:55 am 09:55 Cloudy with Mist and Fog 37 3 36 2 93 93 N 25 41 29.56 1001 4 6.437376 0 0
10:15 am 10:15 Cloudy with Mist and Fog 37 3 36 2 93 93 N 30 48 29.59 1002 2.5 4.02336 0 0
10:35 am 10:35 Cloudy with Light Rain 37 3 36 2 93 93 N 18 30 29.59 1002 3 4.828032 0 0
10:55 am 10:55 Cloudy with Mist and Fog 37 3 36 2 93 93 N 23 37 29.59 1002 2.5 4.02336 0 0
11:15 am 11:15 Cloudy with Light Rain 37 3 36 2 93 93 N 24 39 29.59 1002 5 8.04672 0 0
11:35 am 11:35 Cloudy 37 3 36 2 93 93 N 25 41 29.59 1002 7 11.265408 0 0
11:55 am 11:55 Cloudy 37 3 36 2 93 93 N 28 44 29.59 1002 10 16.09344 0 0
12:15 pm 12:15 Cloudy with Light Rain 36 2 34 1 93 93 N 32 52 29.56 1001 4 6.437376 0 0
12:35 pm 12:35 Cloudy with Light Rain 36 2 34 1 93 93 N 31 50 29.56 1001 2 3.218688 0.04 1.016
12:55 pm 12:55 Cloudy with Light Rain 36 2 34 1 93 93 N 32 52 29.56 1001 5 8.04672 0.05 1.27
1:15 pm 13:15 Cloudy with Light Rain 36 2 34 1 93 93 N 28 44 29.56 1001 10 16.09344 0 0
1:35 pm 13:35 Cloudy with Rain 36 2 34 1 93 93 N 26 43 29.53 1000 2.5 4.02336 0.03 0.762
1:55 pm 13:55 Cloudy 36 2 34 1 93 93 N 26 43 29.53 1000 1.25 2.01168 0.08 2.032
2:15 pm 14:15 Cloudy 36 2 34 1 93 93 N 25 41 29.53 1000 3 4.828032 0.01 0.254
2:35 pm 14:35 Cloudy with Light Rain 36 2 34 1 93 93 N 29 46 29.53 1000 2.5 4.02336 0.02 0.508
2:55 pm 14:55 Cloudy with Light Rain 36 2 34 1 93 93 N 33 54 29.5 999 2.5 4.02336 0.04 1.016
3:15 pm 15:15 Cloudy with Light Rain 36 2 34 1 93 93 N 25 41 29.5 999 3 4.828032 0 0
3:35 pm 15:35 Cloudy with Rain 36 2 34 1 93 93 N 24 39 29.53 1000 3 4.828032 0 0
3:55 pm 15:55 Cloudy with Light Rain 34 1 32 0 93 93 N 29 46 29.53 1000 2.5 4.02336 0.01 0.254
4:15 pm 16:15 Cloudy with Light Rain 36 2 34 1 93 93 N 22 35 29.53 1000 3 4.828032 0.03 0.762
4:35 pm 16:35 Cloudy with Light Rain 34 1 34 1 100 100 N 23 37 29.53 1000 3 4.828032 0.06 1.524
4:55 pm 16:55 Cloudy with Rain 34 1 34 1 100 100 N 15 24 29.53 1000 4 6.437376 0.06 1.524
5:15 pm 17:15 Cloudy with Light Rain 34 1 34 1 100 100 N 17 28 29.53 1000 3 4.828032 0.02 0.508
5:35 pm 17:35 Cloudy with Rain 36 2 34 1 93 93 N 20 31 29.53 1000 7 11.265408 0.04 1.016
5:55 pm 17:55 Cloudy with Light Rain 36 2 34 1 93 93 N 24 39 29.53 1000 5 8.04672 0.04 1.016
6:15 pm 18:15 Cloudy with Heavy Rain 36 2 34 1 93 93 NE 5 7 29.59 1002 3 4.828032 0.06 1.524
6:35 pm 18:35 Cloudy with Rain 34 1 32 0 93 93 N 3 6 29.62 1003 2.5 4.02336 0.14 3.556
6:55 pm 18:55 Cloudy with Light Rain 34 1 32 0 93 93 N 7 11 29.62 1003 2.5 4.02336 0.17 4.318
7:15 pm 19:15 Cloudy with Light Rain 34 1 32 0 93 93 N 10 17 29.62 1003 4 6.437376 0.01 0.254
7:35 pm 19:35 Cloudy with Rain 34 1 32 0 93 93 N 10 17 29.62 1003 3 4.828032 0.03 0.762
7:55 pm 19:55 Cloudy with Rain 34 1 32 0 93 93 NNW 13 20 29.59 1002 4 6.437376 0.04 1.016
8:15 pm 20:15 Cloudy with Light Drizzle 34 1 34 1 100 100 N 10 17 29.59 1002 7 11.265408 0 0
8:35 pm 20:35 Cloudy with Light Rain 34 1 34 1 100 100 N 10 17 29.59 1002 7 11.265408 0 0
8:55 pm 20:55 Cloudy with Light Rain 34 1 32 0 93 93 N 15 24 29.53 1000 10 16.09344 0 0
9:15 pm 21:15 Cloudy with Light Rain 34 1 32 0 93 93 N 16 26 29.53 1000 10 16.09344 0 0
9:35 pm 21:35 Cloudy with Light Snow 34 1 32 0 93 93 N 18 30 29.53 1000 7 11.265408 0 0
9:55 pm 21:55 Windy with Snow Likely 34 1 32 0 93 93 N 23 37 29.5 999 2.5 4.02336 0.01 0.254
10:15 pm 22:15 Windy with Snow Likely 32 0 32 0 100 100 N 26 43 29.5 999 1.75 2.816352 0.01 0.254
10:35 pm 22:35 Windy with Snow Likely 32 0 32 0 100 100 NNW 24 39 29.5 999 2 3.218688 0.02 0.508
10:55 pm 22:55 Cloudy with Light Wintry Mix 32 0 32 0 100 100 NNW 21 33 29.5 999 10 16.09344 0.02 0.508
11:15 pm 23:15 Cloudy 32 0 32 0 100 100 N 24 39 29.5 999 10 16.09344 0 0
11:35 pm 23:35 Windy with Snow Likely 32 0 32 0 100 100 NNW 20 31 29.5 999 7 11.265408 0 0
11:55 pm 23:55 Cloudy 32 0 32 0 100 100 NNW 22 35 29.5 999 10 16.09344 0 0

Powered by AerisWeather